RADUGA 13 [-]

Last updated on Tue Jun 27 2023 00:03:02 GMT+0000 (Coordinated Universal Time)

1 14307U 83088A 23176.90558591 .00000005 00000+0 00000+0 0 9996 2 14307 11.6292 320.5701 0015243 53.0737 298.5548 0.98172420108267
UTC large
Height (km)
Speed (km/s)
/
Latitude / Longitude
Inclination (degrees)
Orbital Period (minutes)
Azimuth
Elevation
Range (km)
Doppler Factor

Next 0 passes for location: London (51.5072 / 0.1276)

Sorry there are no passes over London.
RADUGA 13 [-]